Location: Clanezzo
(45.7500°N, 9.6000°E)
Time: 01:22:28
(UTC+00:00)

Gblst 52 Del rocket - Pass Details

Date: 12 May 2021
Orbit: 805 x 1365 km, 51.5° (Epoch: 23 June)

Event Time Altitude Azimuth Distance (km) Brightness Sun altitude
Rises 23:16:44 0° 298° (WNW) 3,894 8.0 -25.9°
Reaches altitude 10° 23:19:36 10° 296° (WNW) 2,847 7.2 -25.9°
Maximum altitude 23:26:12 62° 217° (SW) 1,046 4.3 -25.8°
Enters shadow 23:26:16 62° 214° (SW) 1,045 4.3 -25.8°
